Location: Amherst
(42.3800°N, 72.5240°W)
Time: 01:18:27
(UTC-04:00)

ISS - Visible Passes

Search period start: 28 July 2021 00:00
Search period end: 07 August 2021 00:00
Orbit: 419 x 421 km, 51.6° (Epoch: 28 July)

Date Brightness Start Highest point End Pass type
(mag) Time Alt. Az. Time Alt. Az. Time Alt. Az.
28 Jul -2.0 21:01:05 10° NW 21:04:03 27° NNE 21:06:59 10° E visible
28 Jul -3.1 22:37:44 10° WNW 22:40:30 49° W 22:40:30 49° W visible
29 Jul -3.8 21:50:26 10° NW 21:53:50 85° NE 21:54:54 41° ESE visible
30 Jul -3.3 21:03:15 10° NW 21:06:35 53° NNE 21:09:23 14° ESE visible
30 Jul -1.6 22:40:36 10° W 22:42:21 19° WSW 22:42:21 19° WSW visible
31 Jul -2.6 21:53:01 10° WNW 21:56:07 33° SW 21:56:55 29° SSW visible
01 Aug -3.4 21:05:42 10° WNW 21:09:02 56° SW 21:11:34 16° SE visible
02 Aug -1.2 21:56:58 10° WSW 21:58:17 12° SW 21:59:18 11° SSW visible
03 Aug -1.6 21:08:51 10° W 21:11:23 20° SW 21:13:53 10° S visible
